Macon, GA

7:01 PM EDT on August 27, 2016 (GMT -0400)
Middle Georgia Regional

Weather History for KMCN - January, 2013

Change the Weather History Date:

Saturday, January 19, 2013

  Actual Average Record
Temperature  
Mean Temperature 45 °F 46 °F  
Max Temperature 62 °F 58 °F 79 °F (1990)
Min Temperature 27 °F 35 °F 5 °F (1977)
Degree Days  
Heating Degree Days 20 19  
Month to date heating degree days 203 361  
Since 1 July heating degree days 1034 1286  
Cooling Degree Days 0 0  
Month to date cooling degree days 18 0  
Year to date cooling degree days 18 0  
Moisture  
Dew Point 33 °F    
Average Humidity 68    
Maximum Humidity 96    
Minimum Humidity 39    
Precipitation  
Precipitation 0.00 in 0.14 in 1.65 in (1978)
Month to date precipitation 1.17 2.51  
Year to date precipitation 1.17 2.51  
Snow  
Snow 0.00 in 0.00 in 0.00 in (2002)
Month to date snowfall 0.0 0.3  
Since 1 July snowfall 0.0 0.4  
Snow Depth -    
Sea Level Pressure  
Sea Level Pressure 30.37 in    
Wind  
Wind Speed 0 mph (WSW)    
Max Wind Speed 7 mph    
Max Gust Speed 8 mph    
Visibility 10 miles    
Events      
T = Trace of Precipitation, MM = Missing Value Source: NWS Daily Summary

Daily Weather History Graph

Daily Weather History Graph

Search for Another Location

Airport or City:

Trip Planner

Search our weather history database for the weather conditions in past years. The results will help you decide how hot, cold, wet, or windy it might be!

Date:

Astronomy

Jan. 19, 2013 Rise Set
Actual Time 7:35 AM EST 5:55 PM EST
Civil Twilight 7:09 AM EST 6:21 PM EST
Nautical Twilight 6:39 AM EST 6:51 PM EST
Astronomical Twilight 6:09 AM EST 7:21 PM EST
Moon 12:17 PM EST (1/19) 1:13 AM EST (1/19)
Length of Visible Light 11h 12m
Length of Day
10h 19m
First Quarter, 57% of the Moon is Illuminated
Jan 19
First Quarter
Jan 26
Full
Feb 3
Last Quarter
Feb 10
New
Feb 17
First Quarter

Hourly Weather History & Observations

Time (EST) Temp. Windchill Dew Point Humidity Pressure Visibility Wind Dir Wind Speed Gust Speed Precip Events Conditions
12:53 AM 30.9 °F - 28.9 °F 92% 30.47 in 6.0 mi Calm Calm - N/A   Clear
1:53 AM 30.0 °F 26.5 °F 28.9 °F 96% 30.47 in 9.0 mi West 3.5 mph - N/A   Clear
2:53 AM 30.0 °F - 27.0 °F 88% 30.45 in 10.0 mi Calm Calm - N/A   Clear
3:53 AM 28.9 °F - 27.0 °F 92% 30.42 in 10.0 mi Calm Calm - N/A   Clear
4:53 AM 28.0 °F - 26.1 °F 92% 30.41 in 10.0 mi Calm Calm - N/A   Clear
5:53 AM 28.9 °F - 27.0 °F 92% 30.43 in 10.0 mi Calm Calm - N/A   Clear
6:53 AM 28.0 °F - 25.0 °F 88% 30.43 in 10.0 mi Calm Calm - N/A   Clear
7:53 AM 28.0 °F - 26.1 °F 92% 30.44 in 8.0 mi Calm Calm - N/A   Clear
8:53 AM 34.0 °F - 32.0 °F 92% 30.45 in 10.0 mi Calm Calm - N/A   Mostly Cloudy
9:53 AM 39.0 °F - 35.1 °F 86% 30.46 in 10.0 mi Calm Calm - N/A   Overcast
10:53 AM 45.0 °F - 33.1 °F 63% 30.45 in 10.0 mi Calm Calm - N/A   Overcast
11:53 AM 50.0 °F - 32.0 °F 50% 30.42 in 10.0 mi Calm Calm - N/A   Mostly Cloudy
12:53 PM 55.0 °F - 33.1 °F 43% 30.36 in 10.0 mi Calm Calm - N/A   Clear
1:53 PM 57.9 °F - 34.0 °F 41% 30.32 in 10.0 mi Calm Calm - N/A   Mostly Cloudy
2:53 PM 60.1 °F - 36.0 °F 41% 30.30 in 10.0 mi West 3.5 mph - N/A   Clear
3:53 PM 60.1 °F - 37.9 °F 44% 30.28 in 10.0 mi Calm Calm - N/A   Clear
4:53 PM 57.9 °F - 39.9 °F 51% 30.27 in 10.0 mi Calm Calm - N/A   Clear
5:53 PM 57.0 °F - 39.0 °F 51% 30.26 in 10.0 mi SW 3.5 mph - N/A   Clear
6:53 PM 50.0 °F - 39.9 °F 68% 30.27 in 10.0 mi Calm Calm - N/A   Clear
7:53 PM 46.0 °F - 41.0 °F 83% 30.28 in 10.0 mi Calm Calm - N/A   Clear
8:53 PM 46.0 °F - 39.0 °F 76% 30.29 in 10.0 mi Calm Calm - N/A   Mostly Cloudy
9:53 PM 44.1 °F - 39.0 °F 82% 30.27 in 10.0 mi Calm Calm - N/A   Clear
10:53 PM 41.0 °F - 39.0 °F 93% 30.26 in 10.0 mi Calm Calm - N/A   Clear
11:53 PM 41.0 °F - 37.0 °F 86% 30.25 in 10.0 mi Calm Calm - N/A   Clear